Date String (YYYY-MM-DD hh:mm:ss) UTC,Instrument flags,absolute air pressure of the measurement (hPa),sample flow rate (lpm),inlet stack bypass flow (lpm),air temperature of the measurement (°C),ambient temperature measured by the external sensor (°C),aerosol sample conditioner tube jacket temperature (°C),OPC LED temperature (°C),internal box temperature (°C),relative humidity of the measurement (%),span deviation,mass concentration of particles derived from Lorenz-Mie calculation of OPC scattering (μg/m³),mass concentration of particles derived from Lorenz-Mie calculation of OPC scattering (μg/m³),mass concentration of particles derived from Lorenz-Mie calculation of OPC scattering (μg/m³)
DateTimeUTC,F1_M11,P_M11,Q1_M11,Q2_M11,T1_M11,T2_M11,T3_M11,T4_M11,T5_M11,U1_M11,ZSPAN_M11,X0_M11,X2_M11,X1_M11
2023-06-23 02:00:00,SystemResetWarning,0831.0,5.00,000.00,031.4,026.4,000.0,039.7,031.6,33.0,0000.0,0006.68,0003.75,0003.33
2023-06-23 02:01:00,SystemResetWarning,0831.1,5.00,000.00,031.4,026.8,000.0,039.7,031.6,32.8,0000.0,0006.98,0003.78,0003.33
2023-06-23 02:02:00,SystemResetWarning,0831.1,5.00,000.00,031.3,027.1,000.0,039.7,031.6,33.2,0000.0,0006.94,0003.78,0003.33
2023-06-23 02:03:00,SystemResetWarning,0831.1,5.00,000.00,031.3,027.4,000.0,039.7,031.6,33.5,0000.0,0006.75,0003.76,0003.32
2023-06-23 02:04:00,SystemResetWarning,0831.1,5.00,000.00,031.2,027.6,000.0,039.6,031.6,33.6,0000.0,0006.57,0003.75,0003.30
2023-06-23 02:05:00,SystemResetWarning,0831.2,5.00,000.00,031.2,027.8,000.0,039.6,031.7,33.3,0000.0,0006.34,0003.73,0003.30
2023-06-23 02:06:00,SystemResetWarning,0831.1,5.00,000.00,031.2,028.0,000.0,039.6,031.7,33.5,0000.0,0006.77,0003.74,0003.30
2023-06-23 02:07:00,SystemResetWarning,0831.1,5.00,000.00,031.1,028.1,000.0,039.6,031.7,33.9,0000.0,0006.87,0003.76,0003.30
2023-06-23 02:08:00,SystemResetWarning,0831.1,4.99,000.00,031.1,028.2,000.0,039.5,031.7,34.0,0000.0,0006.89,0003.76,0003.28
2023-06-23 02:09:00,SystemResetWarning,0831.0,5.00,000.00,031.1,028.3,000.0,039.5,031.8,34.0,0000.0,0006.82,0003.75,0003.28
2023-06-23 02:10:00,SystemResetWarning,0831.0,5.00,000.00,031.1,028.4,000.0,039.5,031.8,34.2,0000.0,0006.93,0003.78,0003.28
2023-06-23 02:11:00,SystemResetWarning,0830.9,5.00,000.00,031.1,028.5,000.0,039.5,031.8,34.5,0000.0,0006.49,0003.77,0003.28
2023-06-23 02:12:00,SystemResetWarning,0830.9,5.00,000.00,031.1,028.5,000.0,039.5,031.9,34.4,0000.0,0006.42,0003.74,0003.27
2023-06-23 02:13:00,SystemResetWarning,0830.9,4.99,000.00,031.1,027.2,000.0,039.4,031.9,34.5,0000.0,0006.51,0003.73,0003.28
2023-06-23 02:14:00,SystemResetWarning,0830.9,5.01,000.00,031.1,025.7,000.0,039.3,031.9,34.8,0000.0,0006.50,0003.73,0003.29
2023-06-23 02:15:00,SystemResetWarning,0830.9,5.01,000.00,031.0,025.4,000.0,039.3,031.6,34.8,0000.0,0006.65,0003.74,0003.31
2023-06-23 02:16:00,SystemResetWarning,0830.9,4.99,000.00,030.9,025.7,000.0,039.3,031.4,35.3,0000.0,0006.57,0003.72,0003.31
2023-06-23 02:17:00,SystemResetWarning,0830.9,5.03,000.00,031.0,026.1,000.0,039.3,031.5,35.0,0000.0,0006.15,0003.71,0003.31
2023-06-23 02:18:00,SystemResetWarning,0830.9,4.97,000.00,031.1,026.5,000.0,039.2,031.6,34.4,0000.0,0006.13,0003.71,0003.32
2023-06-23 02:19:00,SystemResetWarning,0831.0,5.01,000.00,031.2,026.9,000.0,039.2,031.6,33.9,0000.0,0006.11,0003.69,0003.33
2023-06-23 02:20:00,SystemResetWarning,0830.9,5.01,000.00,031.3,027.2,000.0,039.3,031.6,33.8,0000.0,0007.13,0003.69,0003.33
2023-06-23 02:21:00,SystemResetWarning,0830.9,4.99,000.00,031.3,027.4,000.0,039.3,031.6,33.8,0000.0,0007.16,0003.65,0003.32
2023-06-23 02:22:00,SystemResetWarning,0830.9,4.99,000.00,031.3,027.7,000.0,039.3,031.7,33.8,0000.0,0007.71,0003.68,0003.32
2023-06-23 02:23:00,SystemResetWarning,0830.9,5.01,000.00,031.3,027.9,000.0,039.4,031.7,33.7,0000.0,0007.66,0003.69,0003.32
2023-06-23 02:24:00,SystemResetWarning,0830.8,5.01,000.00,031.3,028.0,000.0,039.4,031.7,34.1,0000.0,0007.83,0003.72,0003.32
2023-06-23 02:25:00,SystemResetWarning,0830.8,5.00,000.00,031.3,028.2,000.0,039.4,031.8,34.0,0000.0,0008.76,0003.73,0003.32
2023-06-23 02:26:00,SystemResetWarning,0830.7,5.00,000.00,031.3,028.3,000.0,039.5,031.8,33.7,0000.0,0009.25,0003.72,0003.32
2023-06-23 02:27:00,SystemResetWarning,0830.7,5.00,000.00,031.3,028.4,000.0,039.5,031.8,33.9,0000.0,0009.23,0003.73,0003.33
2023-06-23 02:28:00,SystemResetWarning,0830.7,5.00,000.00,031.3,028.5,000.0,039.5,031.9,33.6,0000.0,0009.43,0003.78,0003.34
2023-06-23 02:29:00,SystemResetWarning,0830.6,5.00,000.00,031.3,028.6,000.0,039.5,031.9,33.3,0000.0,0009.43,0003.76,0003.34
2023-06-23 02:30:00,SystemResetWarning,0830.6,5.00,000.00,031.3,028.3,000.0,039.5,031.9,33.3,0000.0,0009.52,0003.78,0003.34
2023-06-23 02:31:00,SystemResetWarning,0830.5,4.98,000.00,031.3,026.3,000.0,039.4,031.9,33.2,0000.0,0009.29,0003.80,0003.34
2023-06-23 02:32:00,SystemResetWarning,0830.6,5.03,000.00,031.3,024.7,000.0,039.4,031.8,33.4,0000.0,0008.97,0003.80,0003.35
2023-06-23 02:33:00,SystemResetWarning,0830.4,5.00,000.00,031.2,024.5,000.0,039.3,031.5,33.6,0000.0,0008.76,0003.81,0003.36
2023-06-23 02:34:00,SystemResetWarning,0830.4,5.00,000.00,031.0,024.8,000.0,039.3,031.2,33.8,0000.0,0008.41,0003.79,0003.36
2023-06-23 02:35:00,SystemResetWarning,0830.4,5.00,000.00,030.8,025.3,000.0,039.3,031.2,34.0,0000.0,0008.36,0003.78,0003.36
2023-06-23 02:36:00,SystemResetWarning,0830.4,5.00,000.00,030.8,025.9,000.0,039.2,031.2,34.1,0000.0,0007.79,0003.77,0003.36
2023-06-23 02:37:00,SystemResetWarning,0830.4,4.99,000.00,030.7,026.3,000.0,039.2,031.2,34.1,0000.0,0006.88,0003.78,0003.36
2023-06-23 02:38:00,SystemResetWarning,0830.4,5.00,000.00,030.7,026.7,000.0,039.2,031.3,34.3,0000.0,0006.71,0003.81,0003.36
2023-06-23 02:39:00,SystemResetWarning,0830.4,5.00,000.00,030.6,027.1,000.0,039.1,031.3,34.4,0000.0,0006.59,0003.78,0003.36
2023-06-23 02:40:00,SystemResetWarning,0830.5,5.01,000.00,030.6,027.3,000.0,039.1,031.3,34.5,0000.0,0006.52,0003.78,0003.36
2023-06-23 02:41:00,SystemResetWarning,0830.6,5.00,000.00,030.6,027.5,000.0,039.1,031.4,33.9,0000.0,0006.73,0003.76,0003.36
2023-06-23 02:42:00,SystemResetWarning,0830.4,5.00,000.00,030.6,027.7,000.0,039.1,031.4,34.3,0000.0,0006.66,0003.75,0003.35
2023-06-23 02:43:00,SystemResetWarning,0830.4,5.00,000.00,030.6,027.9,000.0,039.1,031.4,34.2,0000.0,0006.61,0003.74,0003.35
2023-06-23 02:44:00,SystemResetWarning,0830.8,5.00,000.00,030.6,028.0,000.0,039.1,031.5,34.1,0000.0,0006.53,0003.74,0003.35
2023-06-23 02:45:00,SystemResetWarning,0830.4,5.00,000.00,030.6,028.1,000.0,039.1,031.5,33.9,0000.0,0006.64,0003.75,0003.36
2023-06-23 02:46:00,SystemResetWarning,0830.5,5.00,000.00,030.6,028.2,000.0,039.1,031.5,34.0,0000.0,0006.59,0003.74,0003.37
2023-06-23 02:47:00,SystemResetWarning,0830.5,5.00,000.00,030.6,028.3,000.0,039.0,031.5,34.0,0000.0,0006.40,0003.74,0003.37
2023-06-23 02:48:00,SystemResetWarning,0830.6,5.00,000.00,030.6,028.4,000.0,039.0,031.6,34.0,0000.0,0006.06,0003.71,0003.37
2023-06-23 02:49:00,SystemResetWarning,0830.6,5.00,000.00,030.6,028.4,000.0,039.0,031.6,33.8,0000.0,0005.92,0003.68,0003.38
2023-06-23 02:50:00,SystemResetWarning,0830.7,5.00,000.00,030.6,028.5,000.0,039.0,031.6,34.0,0000.0,0006.00,0003.69,0003.38
2023-06-23 02:51:00,SystemResetWarning,0830.8,5.01,000.00,030.6,028.6,000.0,039.0,031.7,34.2,0000.0,0006.02,0003.68,0003.38
2023-06-23 02:52:00,SystemResetWarning,0830.8,5.00,000.00,030.6,028.6,000.0,039.0,031.7,34.5,0000.0,0005.78,0003.68,0003.38
2023-06-23 02:53:00,SystemResetWarning,0830.8,4.99,000.00,030.6,027.2,000.0,039.0,031.8,34.8,0000.0,0005.70,0003.68,0003.38
2023-06-23 02:54:00,SystemResetWarning,0830.8,5.01,000.00,030.6,025.7,000.0,038.9,031.7,34.5,0000.0,0005.76,0003.71,0003.39
2023-06-23 02:55:00,SystemResetWarning,0830.7,5.00,000.00,030.5,025.3,000.0,038.9,031.4,34.7,0000.0,0005.77,0003.70,0003.39
2023-06-23 02:56:00,SystemResetWarning,0830.6,5.01,000.00,030.4,025.6,000.0,038.9,031.2,35.6,0000.0,0005.81,0003.71,0003.39
2023-06-23 02:57:00,SystemResetWarning,0830.5,5.00,000.00,030.6,026.0,000.0,038.9,031.3,35.6,0000.0,0005.92,0003.73,0003.39
2023-06-23 02:58:00,SystemResetWarning,0830.6,5.01,000.00,030.8,026.4,000.0,038.8,031.4,35.0,0000.0,0006.03,0003.76,0003.40
2023-06-23 02:59:00,SystemResetWarning,0830.5,4.97,000.00,031.1,026.8,000.0,038.9,031.5,35.0,0000.0,0006.16,0003.78,0003.40
